When you browse on this site, cookies collect data to enhance your experience and personalize the content and advertising you see.
Visit our Privacy Policy to learn more. By continuing to use the site, you agree to this use of cookies and data.
  • En España
  • Lista de países
  • Para 7 días
  • Temperatura del agua
  • Mapa Satelital
  • El tiempo en el mapa
  • Informadores
  • user-avatar
    Iniciar sesión

    Tiempo cada hora Semey

    Hoy, 25 Junio, Martes

    Tiempo Temperatura Precipitaciones Viento Presión Humedad
    00:00 +14°C° 0 mm 2 mps 741 mmHg 86%
    01:00 +14°C° 0 mm 2 mps 741 mmHg 88%
    02:00 +14°C° 0 mm 1 mps 741 mmHg 89%
    03:00 +15°C° 0 mm 1 mps 741 mmHg 86%
    04:00 +15°C° 0 mm 1 mps 741 mmHg 84%
    05:00 +16°C° 0 mm 1 mps 742 mmHg 80%
    06:00 +19°C° 0 mm 1 mps 742 mmHg 74%
    07:00 +20°C° 0 mm 1 mps 742 mmHg 68%
    08:00 +21°C° 0 mm 1 mps 742 mmHg 63%
    09:00 +23°C° 0 mm 1 mps 742 mmHg 55%
    10:00 +24°C° 0 mm 1 mps 742 mmHg 48%
    11:00 +23°C° 0 mm 0 mps 742 mmHg 42%
    12:00 +25°C° 0 mm 1 mps 742 mmHg 40%
    13:00 +26°C° 0 mm 1 mps 742 mmHg 37%
    14:00 +26°C° 0 mm 1 mps 742 mmHg 34%
    15:00 +27°C° 0 mm 2 mps 742 mmHg 33%
    16:00 +27°C° 0 mm 2 mps 742 mmHg 32%
    17:00 +27°C° 0 mm 2 mps 742 mmHg 31%
    18:00 +26°C° 0 mm 2 mps 742 mmHg 36%
    19:00 +24°C° 0 mm 2 mps 742 mmHg 41%
    20:00 +23°C° 0 mm 2 mps 742 mmHg 47%
    21:00 +21°C° 0 mm 3 mps 742 mmHg 52%
    22:00 +20°C° 0 mm 3 mps 742 mmHg 56%
    23:00 +19°C° 0 mm 3 mps 742 mmHg 61%

    Mañana, 26 Junio, Miércoles

    Tiempo Temperatura Precipitaciones Viento Presión Humedad
    00:00 +18°C° 0 mm 3 mps 742 mmHg 63%
    01:00 +18°C° 0 mm 2 mps 741 mmHg 65%
    02:00 +17°C° 0 mm 2 mps 741 mmHg 67%
    03:00 +18°C° 0 mm 2 mps 741 mmHg 66%
    04:00 +18°C° 0 mm 2 mps 741 mmHg 64%
    05:00 +19°C° 0 mm 1 mps 741 mmHg 63%
    06:00 +21°C° 0 mm 1 mps 741 mmHg 56%
    07:00 +23°C° 0 mm 1 mps 741 mmHg 49%
    08:00 +24°C° 0 mm 1 mps 741 mmHg 43%
    09:00 +26°C° 0 mm 1 mps 741 mmHg 39%
    10:00 +27°C° 0 mm 1 mps 740 mmHg 36%
    11:00 +28°C° 0 mm 1 mps 740 mmHg 32%
    12:00 +29°C° 0 mm 1 mps 740 mmHg 31%
    13:00 +29°C° 0 mm 1 mps 740 mmHg 29%
    14:00 +30°C° 0 mm 1 mps 739 mmHg 27%
    15:00 +30°C° 0 mm 1 mps 739 mmHg 27%
    16:00 +30°C° 0 mm 1 mps 739 mmHg 27%
    17:00 +30°C° 0 mm 1 mps 738 mmHg 27%
    18:00 +29°C° 0 mm 2 mps 738 mmHg 32%
    19:00 +27°C° 0 mm 4 mps 738 mmHg 38%
    20:00 +25°C° 0 mm 5 mps 738 mmHg 43%
    21:00 +23°C° 0 mm 4 mps 737 mmHg 47%
    22:00 +22°C° 0 mm 4 mps 737 mmHg 50%
    23:00 +21°C° 0 mm 4 mps 737 mmHg 54%

    Pasado mañana, 27 Junio, Jueves

    Tiempo Temperatura Precipitaciones Viento Presión Humedad
    00:00 +21°C° 0 mm 3 mps 737 mmHg 55%
    01:00 +20°C° 0 mm 3 mps 736 mmHg 55%
    02:00 +20°C° 0 mm 3 mps 736 mmHg 56%
    03:00 +20°C° 0 mm 3 mps 736 mmHg 55%
    04:00 +20°C° 0 mm 3 mps 736 mmHg 55%
    05:00 +20°C° 0 mm 3 mps 736 mmHg 54%
    06:00 +24°C° 0 mm 3 mps 736 mmHg 48%
    07:00 +26°C° 0 mm 3 mps 737 mmHg 42%
    08:00 +28°C° 0 mm 4 mps 737 mmHg 36%
    09:00 +30°C° 0 mm 3 mps 737 mmHg 33%
    10:00 +31°C° 0 mm 3 mps 736 mmHg 30%
    11:00 +34°C° 0 mm 2 mps 736 mmHg 27%
    12:00 +34°C° 0 mm 2 mps 736 mmHg 26%
    13:00 +35°C° 0 mm 2 mps 736 mmHg 25%
    14:00 +36°C° 0 mm 2 mps 736 mmHg 25%
    15:00 +36°C° 0 mm 3 mps 735 mmHg 25%
    16:00 +36°C° 0 mm 3 mps 735 mmHg 26%
    17:00 +35°C° 0 mm 4 mps 735 mmHg 27%
    18:00 +33°C° 0.4 mm 4 mps 735 mmHg 35%
    19:00 +30°C° 0.4 mm 4 mps 735 mmHg 42%
    20:00 +27°C° 0.4 mm 4 mps 735 mmHg 50%
    21:00 +27°C° 0.1 mm 3 mps 735 mmHg 52%
    22:00 +26°C° 0.1 mm 2 mps 735 mmHg 54%
    23:00 +25°C° 0.1 mm 2 mps 735 mmHg 56%

    28 Junio, Viernes

    Tiempo Temperatura Precipitaciones Viento Presión Humedad
    00:00 +25°C° 0 mm 2 mps 735 mmHg 57%
    01:00 +24°C° 0 mm 2 mps 735 mmHg 57%
    02:00 +24°C° 0 mm 2 mps 734 mmHg 58%
    03:00 +24°C° 0 mm 2 mps 734 mmHg 57%
    04:00 +24°C° 0 mm 2 mps 734 mmHg 56%
    05:00 +24°C° 0 mm 2 mps 734 mmHg 55%
    06:00 +26°C° 0 mm 2 mps 734 mmHg 49%
    07:00 +28°C° 0 mm 2 mps 734 mmHg 43%
    08:00 +30°C° 0 mm 3 mps 734 mmHg 37%
    09:00 +31°C° 0 mm 3 mps 734 mmHg 34%
    10:00 +34°C° 0 mm 3 mps 734 mmHg 30%
    11:00 +35°C° 0 mm 3 mps 734 mmHg 27%
    12:00 +36°C° 0 mm 3 mps 734 mmHg 26%
    13:00 +37°C° 0 mm 3 mps 734 mmHg 24%
    14:00 +37°C° 0 mm 3 mps 733 mmHg 22%
    15:00 +37°C° 0 mm 3 mps 733 mmHg 23%
    16:00 +37°C° 0 mm 3 mps 733 mmHg 23%
    17:00 +37°C° 0 mm 4 mps 733 mmHg 23%
    18:00 +35°C° 0 mm 4 mps 733 mmHg 30%
    19:00 +33°C° 0 mm 4 mps 733 mmHg 37%
    20:00 +30°C° 0 mm 4 mps 733 mmHg 44%
    21:00 +29°C° 0 mm 4 mps 732 mmHg 48%
    22:00 +28°C° 0 mm 4 mps 732 mmHg 53%
    23:00 +27°C° 0 mm 4 mps 732 mmHg 57%

    29 Junio, Sábado

    Tiempo Temperatura Precipitaciones Viento Presión Humedad
    00:00 +26°C° 0 mm 3 mps 732 mmHg 58%
    01:00 +26°C° 0 mm 3 mps 732 mmHg 59%
    02:00 +25°C° 0 mm 2 mps 732 mmHg 60%
    03:00 +23°C° 0 mm 4 mps 733 mmHg 66%
    04:00 +22°C° 0 mm 5 mps 733 mmHg 73%
    05:00 +21°C° 0 mm 6 mps 733 mmHg 79%
    06:00 +21°C° 0 mm 7 mps 733 mmHg 78%
    07:00 +21°C° 0 mm 7 mps 734 mmHg 76%
    08:00 +21°C° 0 mm 7 mps 734 mmHg 74%
    09:00 +21°C° 0 mm 7 mps 735 mmHg 73%
    10:00 +21°C° 0 mm 7 mps 735 mmHg 71%
    11:00 +21°C° 0 mm 7 mps 736 mmHg 70%
    12:00 +21°C° 0 mm 7 mps 736 mmHg 67%
    13:00 +21°C° 0 mm 7 mps 736 mmHg 64%
    14:00 +21°C° 0 mm 7 mps 737 mmHg 61%
    15:00 +22°C° 0 mm 6 mps 737 mmHg 58%
    16:00 +22°C° 0 mm 6 mps 737 mmHg 56%
    17:00 +23°C° 0 mm 6 mps 738 mmHg 53%
    18:00 +22°C° 0 mm 5 mps 738 mmHg 55%
    19:00 +21°C° 0 mm 4 mps 738 mmHg 58%
    20:00 +20°C° 0 mm 3 mps 738 mmHg 60%
    21:00 +19°C° 0 mm 3 mps 738 mmHg 63%
    22:00 +18°C° 0 mm 3 mps 738 mmHg 65%
    23:00 +17°C° 0 mm 3 mps 738 mmHg 68%

    30 Junio, Domingo

    Tiempo Temperatura Precipitaciones Viento Presión Humedad
    00:00 +16°C° 0 mm 3 mps 739 mmHg 68%
    01:00 +16°C° 0 mm 3 mps 739 mmHg 68%
    02:00 +14°C° 0 mm 3 mps 739 mmHg 68%
    03:00 +14°C° 0 mm 3 mps 739 mmHg 67%
    04:00 +15°C° 0 mm 2 mps 739 mmHg 66%
    05:00 +15°C° 0 mm 2 mps 739 mmHg 66%
    06:00 +17°C° 0 mm 3 mps 739 mmHg 58%
    07:00 +18°C° 0 mm 4 mps 739 mmHg 50%
    08:00 +20°C° 0 mm 4 mps 739 mmHg 42%
    09:00 +21°C° 0 mm 5 mps 738 mmHg 39%
    10:00 +22°C° 0 mm 5 mps 738 mmHg 35%
    11:00 +23°C° 0 mm 5 mps 738 mmHg 32%
    12:00 +23°C° 0 mm 5 mps 738 mmHg 31%
    13:00 +25°C° 0 mm 5 mps 738 mmHg 31%
    14:00 +26°C° 0 mm 6 mps 738 mmHg 30%
    15:00 +23°C° 0 mm 6 mps 738 mmHg 35%
    16:00 +22°C° 0 mm 5 mps 738 mmHg 41%
    17:00 +20°C° 0 mm 5 mps 738 mmHg 46%
    18:00 +20°C° 0 mm 4 mps 738 mmHg 47%
    19:00 +19°C° 0 mm 3 mps 738 mmHg 48%
    20:00 +19°C° 0 mm 2 mps 738 mmHg 48%
    21:00 +18°C° 0 mm 2 mps 738 mmHg 50%
    22:00 +19°C° 0 mm 1 mps 738 mmHg 51%
    23:00 +19°C° 0 mm 1 mps 737 mmHg 53%
    Mostrar más